Weather History for KFLO - June, 2013

Change the Weather History Date:

Friday, June 7, 2013

  Actual Average Record
Temperature  
Mean Temperature 77 °F 77 °F  
Max Temperature 83 °F 87 °F 98 °F (1975)
Min Temperature 71 °F 66 °F 55 °F (2000)
Degree Days  
Heating Degree Days 0 0  
Month to date heating degree days 0 0  
Since 1 June heating degree days 0 0  
Since 1 July heating degree days 2335 2523  
Cooling Degree Days 12 12  
Month to date cooling degree days 88 77  
Year to date cooling degree days 355 384  
Since 1 June cooling degree days 88 77  
Growing Degree Days 26 (Base 50)    
Moisture  
Dew Point 71 °F    
Average Humidity 79    
Maximum Humidity 93    
Minimum Humidity 65    
Precipitation  
Precipitation 1.02 in 0.17 in 3.48 in (1968)
Month to date precipitation 2.85 1.09  
Year to date precipitation 21.68 16.45  
Sea Level Pressure  
Sea Level Pressure 29.62 in    
Wind  
Wind Speed 10 mph (East)    
Max Wind Speed 26 mph    
Max Gust Speed 35 mph    
Visibility 7 miles    
Events Rain    
T = Trace of Precipitation, MM = Missing Value Source: NWS Daily Summary

Daily Weather History Graph

Daily Weather History Graph

Search for Another Location

Airport or City:

Trip Planner

Search our weather history database for the weather conditions in past years. The results will help you decide how hot, cold, wet, or windy it might be!

Date:

Astronomy

Jun. 07, 2013 Rise Set
Actual Time 6:06 AM EDT 8:28 PM EDT
Civil Twilight 5:37 AM EDT 8:58 PM EDT
Nautical Twilight 5:02 AM EDT 9:33 PM EDT
Astronomical Twilight 4:23 AM EDT 10:12 PM EDT
Moon 5:25 AM EDT (6/7) 7:44 PM EDT (6/7)
Length of Visible Light 15h 20m
Length of Day
14h 22m
Waning Crescent, 1% of the Moon is Illuminated
Jun 7
Waning Crescent
Jun 8
New
Jun 16
First Quarter
Jun 23
Full
Jun 30
Last Quarter

Hourly Weather History & Observations

Time (EDT) Temp. Heat Index Dew Point Humidity Pressure Visibility Wind Dir Wind Speed Gust Speed Precip Events Conditions
12:14 AM 71.6 °F - 69.8 °F 94% 29.79 in 6.0 mi ENE 6.9 mph - 0.02 in Rain Rain
12:41 AM 71.6 °F - 69.8 °F 94% 29.77 in 5.0 mi East 6.9 mph - 0.12 in Rain Rain
12:53 AM 72.0 °F - 69.1 °F 91% 29.75 in 9.0 mi ENE 9.2 mph - 0.13 in Rain Rain
1:02 AM 71.6 °F - 69.8 °F 94% 29.75 in 8.0 mi ENE 10.4 mph - 0.00 in Rain Light Rain
1:53 AM 72.0 °F - 69.1 °F 91% 29.71 in 5.0 mi ENE 13.8 mph - 0.06 in Rain Light Rain
2:17 AM 71.6 °F - 69.8 °F 94% 29.70 in 1.8 mi ENE 11.5 mph - 0.14 in Rain Heavy Rain
2:31 AM 71.6 °F - 69.8 °F 94% 29.70 in 2.5 mi ENE 10.4 mph - 0.26 in Rain Heavy Rain
2:48 AM 71.6 °F - 69.8 °F 94% 29.68 in 7.0 mi ENE 11.5 mph - 0.33 in Rain Light Rain
2:53 AM 71.1 °F - 69.1 °F 93% 29.68 in 7.0 mi ENE 9.2 mph - 0.33 in Rain Light Rain
3:22 AM 71.6 °F - 69.8 °F 94% 29.66 in 8.0 mi NE 8.1 mph - 0.02 in Rain Light Rain
3:34 AM 71.6 °F - 69.8 °F 94% 29.65 in 10.0 mi NE 6.9 mph - 0.02 in Rain Light Rain
3:44 AM 71.6 °F - 69.8 °F 94% 29.65 in 4.0 mi ENE 6.9 mph - 0.04 in Rain Rain
3:53 AM 71.1 °F - 69.1 °F 93% 29.64 in 4.0 mi ENE 8.1 mph - 0.06 in Rain Light Rain
4:14 AM 71.6 °F - 69.8 °F 94% 29.64 in 10.0 mi ENE 9.2 mph - 0.00 in   Overcast
4:53 AM 71.1 °F - 69.1 °F 93% 29.61 in 10.0 mi NE 5.8 mph - 0.00 in   Overcast
5:04 AM 71.6 °F - 69.8 °F 94% 29.62 in 10.0 mi NE 5.8 mph - N/A   Overcast
5:16 AM 71.6 °F - 69.8 °F 94% 29.62 in 7.0 mi ENE 8.1 mph - 0.01 in Rain Light Rain
5:25 AM 71.6 °F - 69.8 °F 94% 29.61 in 10.0 mi ENE 5.8 mph - 0.01 in Rain Light Rain
5:33 AM 71.6 °F - 69.8 °F 94% 29.62 in 10.0 mi ENE 6.9 mph - 0.01 in   Overcast
5:53 AM 72.0 °F - 70.0 °F 93% 29.60 in 10.0 mi ENE 5.8 mph - 0.01 in   Overcast
6:11 AM 71.6 °F - 69.8 °F 94% 29.60 in 10.0 mi NE 6.9 mph - 0.00 in Rain Light Rain
6:37 AM 71.6 °F - 69.8 °F 94% 29.59 in 1.8 mi NE 8.1 mph - 0.06 in Rain Heavy Rain
6:46 AM 71.6 °F - 69.8 °F 94% 29.58 in 2.5 mi ENE 8.1 mph - 0.07 in Rain Light Rain
6:53 AM 73.0 °F - 71.1 °F 93% 29.57 in 10.0 mi ENE 6.9 mph - 0.07 in   Overcast
7:06 AM 73.4 °F - 71.6 °F 94% 29.57 in 5.0 mi ENE 5.8 mph - 0.00 in Rain Light Rain
7:14 AM 73.4 °F - 71.6 °F 94% 29.57 in 1.8 mi East 5.8 mph - 0.06 in Rain Rain
7:27 AM 73.4 °F - 71.6 °F 94% 29.56 in 0.8 mi ENE 8.1 mph - 0.32 in Rain Heavy Rain
7:33 AM 73.4 °F - 71.6 °F 94% 29.55 in 1.0 mi NE 8.1 mph - 0.36 in Rain Heavy Rain
7:39 AM 73.4 °F - 71.6 °F 94% 29.55 in 2.0 mi ENE 9.2 mph - 0.36 in Rain Light Rain
7:50 AM 73.4 °F - 71.6 °F 94% 29.54 in 3.0 mi East 11.5 mph - 0.36 in Rain Light Rain
7:53 AM 73.9 °F - 72.0 °F 93% 29.53 in 3.0 mi East 9.2 mph - 0.36 in Rain Light Rain
8:14 AM 75.2 °F - 71.6 °F 89% 29.54 in 10.0 mi ESE 10.4 mph - 0.00 in   Overcast
8:20 AM 75.2 °F - 71.6 °F 89% 29.54 in 2.0 mi ESE 8.1 mph 27.6 mph 0.01 in Rain Light Rain
8:27 AM 75.2 °F - 71.6 °F 89% 29.53 in 4.0 mi SE 9.2 mph - 0.01 in Rain Light Rain
8:34 AM 75.2 °F - 71.6 °F 89% 29.53 in 10.0 mi ESE 8.1 mph - 0.01 in   Overcast
8:53 AM 75.0 °F - 72.0 °F 90% 29.51 in 4.0 mi ESE 10.4 mph - 0.01 in Rain Light Rain
9:09 AM 75.2 °F - 71.6 °F 89% 29.51 in 9.0 mi SE 13.8 mph - 0.01 in Rain Light Rain
9:39 AM 75.2 °F - 71.6 °F 89% 29.49 in 1.8 mi SE 15.0 mph 23.0 mph 0.02 in Rain Rain
9:44 AM 75.2 °F - 71.6 °F 89% 29.48 in 5.0 mi SSE 15.0 mph 23.0 mph 0.03 in Rain Light Rain
9:53 AM 75.0 °F - 72.0 °F 90% 29.47 in 3.0 mi SSE 16.1 mph 24.2 mph 0.03 in Rain Light Rain
10:03 AM 75.2 °F - 71.6 °F 89% 29.47 in 1.8 mi SSE 13.8 mph 26.5 mph 0.01 in Rain Light Rain
10:17 AM 75.2 °F - 71.6 °F 89% 29.47 in 2.0 mi SSE 12.7 mph 23.0 mph 0.04 in Rain Light Rain
10:24 AM 75.2 °F - 71.6 °F 89% 29.46 in 1.5 mi SSE 13.8 mph 20.7 mph 0.06 in Rain Rain
10:50 AM 75.2 °F - 71.6 °F 89% 29.45 in 10.0 mi South 17.3 mph 24.2 mph 0.07 in Rain Light Rain
10:53 AM 75.0 °F - 72.0 °F 90% 29.43 in 10.0 mi South 16.1 mph 24.2 mph 0.07 in Rain Light Rain
11:26 AM 75.2 °F - 71.6 °F 89% 29.48 in 9.0 mi WNW 24.2 mph 34.5 mph 0.00 in Rain Light Rain
11:53 AM 77.0 °F - 71.1 °F 82% 29.52 in 10.0 mi WNW 21.9 mph 33.4 mph 0.00 in   Mostly Cloudy
11:55 AM 77.0 °F - 69.8 °F 78% 29.53 in 10.0 mi WNW 23.0 mph 34.5 mph N/A   Overcast
12:53 PM 75.9 °F - 69.1 °F 79% 29.60 in 10.0 mi WNW 16.1 mph 24.2 mph N/A   Overcast
1:08 PM 75.2 °F - 69.8 °F 83% 29.62 in 10.0 mi West 18.4 mph 27.6 mph N/A   Overcast
1:27 PM 75.2 °F - 69.8 °F 83% 29.63 in 10.0 mi West 11.5 mph 27.6 mph N/A   Overcast
1:45 PM 73.4 °F - 69.8 °F 88% 29.65 in 2.0 mi West 12.7 mph 23.0 mph 0.01 in Rain Light Rain
1:53 PM 73.9 °F - 71.1 °F 91% 29.65 in 4.0 mi West 16.1 mph 26.5 mph 0.01 in Rain Light Rain
2:23 PM 77.0 °F - 71.6 °F 83% 29.67 in 10.0 mi West 15.0 mph 26.5 mph 0.00 in Rain Light Rain
2:38 PM 75.2 °F - 71.6 °F 89% 29.68 in 8.0 mi West 12.7 mph 28.8 mph 0.00 in Rain Light Rain
2:53 PM 77.0 °F - 72.0 °F 84% 29.68 in 10.0 mi West 15.0 mph 19.6 mph 0.00 in Rain Light Rain
3:53 PM 79.0 °F - 70.0 °F 74% 29.71 in 10.0 mi West 11.5 mph 21.9 mph 0.00 in   Mostly Cloudy
4:53 PM 81.0 °F 84.9 °F 71.1 °F 72% 29.71 in 10.0 mi WSW 13.8 mph - 0.01 in   Mostly Cloudy
5:53 PM 82.0 °F 85.5 °F 69.1 °F 65% 29.73 in 10.0 mi WSW 15.0 mph - N/A   Partly Cloudy
6:53 PM 82.0 °F 85.9 °F 70.0 °F 67% 29.74 in 10.0 mi SW 10.4 mph - N/A   Clear
7:53 PM 81.0 °F 84.4 °F 70.0 °F 69% 29.76 in 10.0 mi SSW 5.8 mph - N/A   Clear
8:53 PM 77.0 °F - 71.1 °F 82% 29.78 in 10.0 mi SSW 4.6 mph - N/A   Clear
9:53 PM 77.0 °F - 71.1 °F 82% 29.81 in 10.0 mi South 5.8 mph - N/A   Clear
10:53 PM 77.0 °F - 71.1 °F 82% 29.83 in 10.0 mi SSW 6.9 mph - N/A   Clear
11:53 PM 77.0 °F - 72.0 °F 84% 29.84 in 10.0 mi SW 4.6 mph - N/A   Scattered Clouds